Simultaneous Nadir Overpasses (SNOs) Predictions

Prediction of SNOs between AQUA and METOP-A Satellite Orbit:

Table of predicted SNOs for the next 14.0 days since TLE Epoch: 11/7/2020
Index Date (AQUA) Time (AQUA) Lat,Lon (AQUA) SZA (AQUA ) Date (METOP-A) Time (METOP-A) Lat,Lon (METOP-A) SZA (METOP-A ) Distance(km) Time Diff (sec)
1 11/09/2020 07:17:19 76.75, 57.02 93.86 11/09/2020 07:16:39 76.73, 57.01 93.85 2.01 40
2 11/09/2020 08:06:46 -76.80,-135.52 86.07 11/09/2020 08:07:19 -76.79,-135.43 86.09 2.65 33
3 11/12/2020 02:51:33 76.76, 123.41 94.66 11/12/2020 02:51:00 76.76, 123.49 94.67 1.99 33
4 11/12/2020 03:41:00 -76.82, -69.14 85.28 11/12/2020 03:41:41 -76.78, -69.11 85.31 3.53 41
5 11/14/2020 22:25:48 76.78,-170.23 95.42 11/14/2020 22:25:23 76.75,-170.21 95.40 3.53 25
6 11/14/2020 23:15:14 -76.79, -2.61 84.56 11/14/2020 23:16:03 -76.82, -2.63 84.54 3.15 49
7 11/17/2020 18:00:02 76.77,-103.74 96.11 11/17/2020 17:59:45 76.78,-103.75 96.12 1.72 17
8 11/17/2020 18:49:29 -76.82, 63.71 83.83 11/17/2020 18:50:26 -76.81, 63.67 83.85 2.11 57
9 11/20/2020 12:44:43 -76.54, 155.87 83.51 11/20/2020 12:43:33 -76.50, 154.20 83.48 43.54 70
10 11/20/2020 13:34:16 76.81, -37.44 96.81 11/20/2020 13:34:06 76.81, -37.30 96.81 3.71 10
